Regional Weather Roundup
Issued by NWS Jackson, KY

Home | Current Version | Previous Version | Text Only | Print | Product List | Glossary Off
Versions: 1 2 3 4 5 6 7 8 9 10 11 12 13 14 15 16 17 18 19 20 21 22 23 24 25 26 27 28 29 30 31 32 33 34 35 36 37 38 39 40 41 42 43 44 45 46 47 48 49 50

000
ASUS43 KJKL 221310
RWRJKL

EAST KENTUCKY HOURLY WEATHER ROUNDUP
NATIONAL WEATHER SERVICE JACKSON KY
900 AM EDT FRI MAY 22 2015

NOTE: "FAIR" INDICATES FEW OR NO CLOUDS BELOW 12,000 FEET WITH
NO SIGNIFICANT WEATHER AND/OR OBSTRUCTIONS TO VISIBILITY.

* THESE REPORTS ARE NOT UNDER NWS QUALITY CONTROL AND MAY NOT
  REPORT WEATHER SUCH AS PRECIPITATION AND FOG.

KYZ079-080-083-085-087-088-110-112-115-119-120-221400
...EASTERN KENTUCKY...

CITY           SKY/WX    TMP DP  RH WIND       PRES   REMARKS
JACKSON        CLOUDY    48  47  96 CALM      30.29R FOG
LONDON         PTSUNNY   48  44  86 CALM      30.29R FOG
SOMERSET*      FOG       45  45 100 CALM      30.31S VSB 1/2
MONTICELLO*    CLOUDY    48  48 100 CALM      30.33R FOG
MIDDLESBORO*   CLOUDY    48  46  92 CALM      30.31R
HARLAN APT*    PTSUNNY   46  45  93 CALM      30.30R
BIG SANDY*     PTSUNNY   48  47  97 W5        30.27R
MOREHEAD APT*  SUNNY     52  46  82 S7        30.28R
$$

KYZ035-036-041-042-044-050-067-078-099-221400
...CENTRAL KENTUCKY...

CITY           SKY/WX    TMP DP  RH WIND       PRES   REMARKS
MT STERLING*   SUNNY     50  46  87 SW7       30.28R
DANVILLE*      SUNNY     52  46  82 W3        30.29S
RICHMOND*      SUNNY     54  45  71 W8        30.28R
LEXINGTON      SUNNY     52  46  80 SW8       30.27R
FRANKFORT      SUNNY     52  45  77 SW8       30.25R
$$

KYZ091>093-OHZ055-061-077-WVZ005-015-034-035-042-221400
...SOUTHERN OHIO/WEST VIRGINIA...

CITY           SKY/WX    TMP DP  RH WIND       PRES   REMARKS
COVINGTON      SUNNY     55  45  68 W7        30.21R
COLUMBUS       SUNNY     52  43  71 S7        30.16S
DAYTON         SUNNY     55  45  68 W8        30.18F
WILMINGTON     SUNNY     53  43  68 W10       30.19R
HUNTINGTON     SUNNY     50  46  86 SW6       30.23R
CHARLESTON     MOSUNNY   51  46  83 SW8       30.24R
PINEVILLE*     CLOUDY    50  46  87 MISG      30.31R
BECKLEY        MOSUNNY   47  42  83 W10       30.24R
BLUEFIELD      CLOUDY    47  41  80 W7        30.25R
$$

VAZ002-007-008-TNZ017-027-036-066-071-221400
...SOUTHWEST VIRGINIA/EAST TENNESSEE...

CITY           SKY/WX    TMP DP  RH WIND       PRES   REMARKS
WISE*          SUNNY     48  45  87 N5        30.28R
JONESVILLE*    SUNNY     50  45  81 CALM      30.31R
ABINGDON*      SUNNY     53  44  71 CALM      30.27R
BRISTOL        MOSUNNY   52  44  74 CALM      30.27R
KNOXVILLE      MOSUNNY   56  45  66 NE9       30.26R
OAK RIDGE      SUNNY     57  44  62 CALM      30.28R
CROSSVILLE     SUNNY     49  44  83 NE10      30.28R
NASHVILLE      MOSUNNY   55  47  74 N5        30.30R
$$

...KEY TO REMARKS...
VSB - VISIBILITY IN MILES
WCI - WIND CHILL INDEX
HX  - HEAT INDEX

$$


USA.gov is the U.S. government's official web portal to all federal, state and local government web resources and services.